Location: Eboldshausen
(51.7766°N, 10.0050°E)
Time: 05:27:04
(UTC+00:00)

IRS-1C - Pass Details

Date: 15 November 2025
Orbit: 813 x 814 km, 99.0° (Epoch: 16 December)

Event Time Altitude Azimuth Distance (km) Brightness Sun altitude
Rises 16:42:38 0° 163° (SSE) 3,328 7.3 -11.3°
Reaches altitude 10° 16:44:58 10° 164° (SSE) 2,400 6.6 -11.6°
Maximum altitude 16:50:17 85° 254° (WSW) 825 4.2 -12.4°
Drops below altitude 10° 16:55:39 10° 343° (NNW) 2,417 6.6 -13.2°
Sets 16:58:01 0° 344° (NNW) 3,353 7.4 -13.6°
